Location: Congrier
(47.8099°N, 1.1170°W)
Time: 23:20:57
(UTC+00:00)

Cosmos 2360 - Pass Details

Date: 28 January 2023
Orbit: 845 x 857 km, 70.8° (Epoch: 01 April)

Event Time Altitude Azimuth Distance (km) Brightness Sun altitude
Rises 17:38:47 0° 206° (SSW) 3,391 8.1 -7.1°
Reaches altitude 10° 17:41:13 10° 206° (SSW) 2,460 7.3 -7.5°
Maximum altitude 17:46:53 90° 284° (WNW) 853 4.3 -8.4°
Drops below altitude 10° 17:52:36 10° 28° (NNE) 2,482 6.2 -9.3°
Enters shadow 17:54:49 - 28° (NNE) 3,328 6.9 -9.7°
